SWA580 KVPS-KHOU

Flight info

Callsign SWA580
Flight time 1h 23m
Altitude 36000
Route CEW J2 INBRD PENSI SJI PUCKS4
Aircraft B737/M-SADE2E3GIJ4RWZ/LB1D1

Departure

Time 2026-04-28 22:44
Airport Destin-Fort Walton Beach Airport (KVPS)

Arrival

Time 2026-04-29 00:07
Airport William P. Hobby Airport (KHOU)
Time Latitude Longitude Altitude Speed Heading
2026-04-28 22:20 30.49475 -86.54908 94 ft 0 kts 291°
2026-04-28 22:35 30.49472 -86.54900 94 ft 4 kts 291°
2026-04-28 22:35 30.49463 -86.54870 95 ft 4 kts 285°
2026-04-28 22:35 30.49460 -86.54842 94 ft 4 kts 242°
2026-04-28 22:35 30.49467 -86.54834 94 ft 1 kts 182°
2026-04-28 22:36 30.49470 -86.54833 94 ft 0 kts 182°
2026-04-28 22:38 30.49466 -86.54834 93 ft 4 kts 182°
2026-04-28 22:39 30.49397 -86.54836 94 ft 12 kts 181°
2026-04-28 22:39 30.49321 -86.54860 94 ft 12 kts 237°
2026-04-28 22:39 30.49312 -86.54953 94 ft 12 kts 256°
2026-04-28 22:39 30.49243 -86.54983 95 ft 11 kts 185°
2026-04-28 22:40 30.49168 -86.55009 97 ft 12 kts 203°
2026-04-28 22:40 30.49091 -86.55058 100 ft 13 kts 210°
2026-04-28 22:40 30.49020 -86.55113 102 ft 11 kts 194°
2026-04-28 22:40 30.48989 -86.55126 103 ft 0 kts 209°
2026-04-28 22:43 30.48978 -86.55134 102 ft 3 kts 209°
2026-04-28 22:43 30.48923 -86.55170 101 ft 16 kts 210°
2026-04-28 22:43 30.48866 -86.55201 101 ft 3 kts 154°
2026-04-28 22:43 30.48862 -86.55191 101 ft 0 kts 118°
2026-04-28 22:44 30.48847 -86.55162 102 ft 25 kts 119°
2026-04-28 22:44 30.48622 -86.54704 105 ft 104 kts 120°
2026-04-28 22:44 30.48171 -86.53770 230 ft 151 kts 118°
2026-04-28 22:44 30.47709 -86.52678 1032 ft 148 kts 122°
2026-04-28 22:45 30.47219 -86.51523 1495 ft 176 kts 120°
2026-04-28 22:45 30.46642 -86.50135 1803 ft 212 kts 120°
2026-04-28 22:45 30.45917 -86.48482 2114 ft 241 kts 125°
2026-04-28 22:45 30.44746 -86.47120 2804 ft 248 kts 151°
2026-04-28 22:46 30.43085 -86.46612 3654 ft 254 kts 179°
2026-04-28 22:46 30.41340 -86.47114 4423 ft 267 kts 207°
2026-04-28 22:46 30.39936 -86.48531 5328 ft 273 kts 234°
2026-04-28 22:46 30.39197 -86.50556 6338 ft 276 kts 260°
2026-04-28 22:47 30.39315 -86.52750 7398 ft 274 kts 287°
2026-04-28 22:47 30.40252 -86.54644 8546 ft 275 kts 311°
2026-04-28 22:47 30.41825 -86.55947 9492 ft 285 kts 334°
2026-04-28 22:47 30.43741 -86.56664 10389 ft 295 kts 341°
2026-04-28 22:48 30.45818 -86.57274 10749 ft 323 kts 343°
2026-04-28 22:48 30.48074 -86.57900 10954 ft 351 kts 343°
2026-04-28 22:48 30.50538 -86.58580 11210 ft 375 kts 343°
2026-04-28 22:48 30.53109 -86.59299 11800 ft 385 kts 343°
2026-04-28 22:49 30.55725 -86.60043 12580 ft 389 kts 343°
2026-04-28 22:49 30.58362 -86.60809 13405 ft 392 kts 342°
2026-04-28 22:49 30.61012 -86.61585 14201 ft 395 kts 342°
2026-04-28 22:49 30.63685 -86.62368 14951 ft 397 kts 342°
2026-04-28 22:50 30.66368 -86.63153 15743 ft 398 kts 342°
2026-04-28 22:50 30.69059 -86.63939 16534 ft 400 kts 342°
2026-04-28 22:50 30.71726 -86.64718 17292 ft 402 kts 342°
2026-04-28 22:50 30.74448 -86.65515 18015 ft 405 kts 342°
2026-04-28 22:51 30.77108 -86.66530 18660 ft 401 kts 329°
2026-04-28 22:51 30.79323 -86.68446 19259 ft 396 kts 311°
2026-04-28 22:51 30.80931 -86.71028 19870 ft 394 kts 296°
2026-04-28 22:51 30.81923 -86.73999 20442 ft 396 kts 284°
2026-04-28 22:52 30.82202 -86.77194 20995 ft 400 kts 270°
2026-04-28 22:52 30.82050 -86.80442 21529 ft 404 kts 267°
2026-04-28 22:52 30.81829 -86.83710 22046 ft 407 kts 267°
2026-04-28 22:52 30.81602 -86.87002 22546 ft 410 kts 267°
2026-04-28 22:53 30.81390 -86.90327 23060 ft 413 kts 268°
2026-04-28 22:53 30.81197 -86.93621 23565 ft 415 kts 268°
2026-04-28 22:53 30.81009 -86.96982 23991 ft 417 kts 268°
2026-04-28 22:53 30.80823 -87.00358 24379 ft 420 kts 268°
2026-04-28 22:54 30.80635 -87.03762 24698 ft 424 kts 268°
2026-04-28 22:54 30.80444 -87.07193 25008 ft 427 kts 268°
2026-04-28 22:54 30.80251 -87.10656 25322 ft 431 kts 268°
2026-04-28 22:54 30.80054 -87.14146 25650 ft 433 kts 268°
2026-04-28 22:55 30.79856 -87.17656 25968 ft 436 kts 268°
2026-04-28 22:55 30.79655 -87.21192 26243 ft 439 kts 268°
2026-04-28 22:55 30.79455 -87.24698 26543 ft 442 kts 268°
2026-04-28 22:55 30.79250 -87.28279 26846 ft 445 kts 268°
2026-04-28 22:56 30.79042 -87.31880 27133 ft 448 kts 268°
2026-04-28 22:56 30.78831 -87.35500 27439 ft 450 kts 268°
2026-04-28 22:56 30.78619 -87.39138 27718 ft 452 kts 268°
2026-04-28 22:56 30.78404 -87.42794 27990 ft 454 kts 268°
2026-04-28 22:57 30.78188 -87.46466 28246 ft 456 kts 268°
2026-04-28 22:57 30.77970 -87.50155 28537 ft 457 kts 268°
2026-04-28 22:57 30.77750 -87.53839 28901 ft 457 kts 268°
2026-04-28 22:57 30.77530 -87.57515 29282 ft 456 kts 268°
2026-04-28 22:58 30.77309 -87.61198 29642 ft 457 kts 268°
2026-04-28 22:58 30.77090 -87.64834 30011 ft 457 kts 268°
2026-04-28 22:58 30.76867 -87.68516 30372 ft 457 kts 268°
2026-04-28 22:58 30.76642 -87.72193 30769 ft 455 kts 269°
2026-04-28 22:59 30.76418 -87.75854 31205 ft 453 kts 269°
2026-04-28 22:59 30.76194 -87.79499 31628 ft 452 kts 269°
2026-04-28 22:59 30.75969 -87.83140 32043 ft 451 kts 269°
2026-04-28 22:59 30.75745 -87.86767 32460 ft 450 kts 269°
2026-04-28 23:00 30.75519 -87.90386 32897 ft 448 kts 269°
2026-04-28 23:00 30.75297 -87.93945 33346 ft 446 kts 269°
2026-04-28 23:00 30.75071 -87.97537 33779 ft 445 kts 269°
2026-04-28 23:00 30.74844 -88.01123 34169 ft 444 kts 269°
2026-04-28 23:01 30.74618 -88.04701 34531 ft 443 kts 269°
2026-04-28 23:01 30.74391 -88.08264 34892 ft 441 kts 269°
2026-04-28 23:01 30.74164 -88.11800 35342 ft 436 kts 269°
2026-04-28 23:01 30.73939 -88.15296 35821 ft 431 kts 269°
2026-04-28 23:02 30.73715 -88.18769 36088 ft 432 kts 269°
2026-04-28 23:02 30.73263 -88.25774 36099 ft 435 kts 269°
2026-04-28 23:03 30.72810 -88.32694 36096 ft 430 kts 269°
2026-04-28 23:03 30.71662 -88.39509 36127 ft 435 kts 255°
2026-04-28 23:04 30.69657 -88.46134 36099 ft 434 kts 255°
2026-04-28 23:04 30.66701 -88.56060 36084 ft 433 kts 255°
2026-04-28 23:05 30.64772 -88.62618 36082 ft 432 kts 255°
2026-04-28 23:05 30.62833 -88.69213 36085 ft 431 kts 255°
2026-04-28 23:06 30.60891 -88.75805 36065 ft 432 kts 255°
2026-04-28 23:06 30.58944 -88.82396 36058 ft 432 kts 255°
2026-04-28 23:07 30.57002 -88.88956 36055 ft 433 kts 255°
2026-04-28 23:07 30.55040 -88.95570 36050 ft 434 kts 255°
2026-04-28 23:08 30.53071 -89.02191 36049 ft 435 kts 255°
2026-04-28 23:08 30.51095 -89.08824 36064 ft 435 kts 255°
2026-04-28 23:09 30.49114 -89.15458 36066 ft 436 kts 255°
2026-04-28 23:09 30.47141 -89.22050 36066 ft 436 kts 255°
2026-04-28 23:10 30.45152 -89.28685 36061 ft 436 kts 255°
2026-04-28 23:10 30.43161 -89.35318 36056 ft 436 kts 255°
2026-04-28 23:11 30.41165 -89.41952 36055 ft 436 kts 255°
2026-04-28 23:11 30.39173 -89.48580 36033 ft 436 kts 255°
2026-04-28 23:12 30.37189 -89.55177 36052 ft 438 kts 255°
2026-04-28 23:12 30.35182 -89.61840 36049 ft 439 kts 255°
2026-04-28 23:13 30.33161 -89.68531 36040 ft 441 kts 255°
2026-04-28 23:13 30.31131 -89.75235 36041 ft 442 kts 255°
2026-04-28 23:14 30.29109 -89.81898 36036 ft 442 kts 255°
2026-04-28 23:14 30.27071 -89.88603 36034 ft 442 kts 255°
2026-04-28 23:15 30.25029 -89.95303 36046 ft 442 kts 255°
2026-04-28 23:15 30.22986 -90.01999 36047 ft 441 kts 257°
2026-04-28 23:16 30.20939 -90.08692 36049 ft 441 kts 257°
2026-04-28 23:16 30.18905 -90.15328 36049 ft 441 kts 257°
2026-04-28 23:17 30.16851 -90.22013 36053 ft 441 kts 257°
2026-04-28 23:17 30.14796 -90.28690 36052 ft 441 kts 257°
2026-04-28 23:18 30.12735 -90.35370 36050 ft 441 kts 257°
2026-04-28 23:18 30.10677 -90.42026 36025 ft 436 kts 258°
2026-04-28 23:19 30.08667 -90.48496 36027 ft 428 kts 258°
2026-04-28 23:19 30.06662 -90.54967 36037 ft 428 kts 258°
2026-04-28 23:20 30.04657 -90.61426 36037 ft 428 kts 258°
2026-04-28 23:20 30.02645 -90.67889 36038 ft 428 kts 258°
2026-04-28 23:21 30.00629 -90.74351 36056 ft 428 kts 258°
2026-04-28 23:21 29.98619 -90.80776 36044 ft 429 kts 259°
2026-04-28 23:22 29.96594 -90.87236 36047 ft 429 kts 259°
2026-04-28 23:22 29.94560 -90.93714 36048 ft 429 kts 259°
2026-04-28 23:23 29.92525 -91.00182 36035 ft 429 kts 259°
2026-04-28 23:23 29.90501 -91.06601 36045 ft 429 kts 259°
2026-04-28 23:24 29.88459 -91.13068 36057 ft 429 kts 258°
2026-04-28 23:24 29.86417 -91.19517 36050 ft 427 kts 258°
2026-04-28 23:25 29.84381 -91.25937 36041 ft 426 kts 258°
2026-04-28 23:25 29.82348 -91.32336 36043 ft 425 kts 258°
2026-04-28 23:26 29.80330 -91.38677 36036 ft 424 kts 259°
2026-04-28 23:26 29.78298 -91.45051 36045 ft 424 kts 259°
2026-04-28 23:27 29.76263 -91.51421 36048 ft 424 kts 259°
2026-04-28 23:27 29.74226 -91.57784 36036 ft 423 kts 259°
2026-04-28 23:28 29.72204 -91.64088 36041 ft 423 kts 259°
2026-04-28 23:28 29.70167 -91.70429 36039 ft 422 kts 259°
2026-04-28 23:29 29.68128 -91.76764 36039 ft 422 kts 259°
2026-04-28 23:29 29.66085 -91.83099 36038 ft 423 kts 259°
2026-04-28 23:30 29.64039 -91.89429 36031 ft 422 kts 259°
2026-04-28 23:30 29.62005 -91.95712 36023 ft 422 kts 259°
2026-04-28 23:31 29.59958 -92.02023 36022 ft 421 kts 259°
2026-04-28 23:31 29.57908 -92.08331 36017 ft 421 kts 259°
2026-04-28 23:32 29.55858 -92.14630 36017 ft 421 kts 259°
2026-04-28 23:32 29.53817 -92.20888 36017 ft 421 kts 259°
2026-04-28 23:33 29.51760 -92.27184 36004 ft 421 kts 259°
2026-04-28 23:33 29.49699 -92.33480 36001 ft 421 kts 258°
2026-04-28 23:34 29.47638 -92.39768 36014 ft 421 kts 258°
2026-04-28 23:34 29.45575 -92.46051 36009 ft 421 kts 258°
2026-04-28 23:35 29.43620 -92.52316 36009 ft 419 kts 259°
2026-04-28 23:35 29.41701 -92.58633 36007 ft 419 kts 259°
2026-04-28 23:36 29.39770 -92.64947 36004 ft 420 kts 259°
2026-04-28 23:36 29.37828 -92.71252 36010 ft 419 kts 259°
2026-04-28 23:37 29.35898 -92.77493 36004 ft 418 kts 259°
2026-04-28 23:37 29.33958 -92.83762 35998 ft 417 kts 259°
2026-04-28 23:38 29.32017 -92.90024 35994 ft 417 kts 259°
2026-04-28 23:38 29.30073 -92.96284 36001 ft 417 kts 259°
2026-04-28 23:39 29.28583 -93.02551 36001 ft 401 kts 274°
2026-04-28 23:39 29.28910 -93.08828 35992 ft 394 kts 281°
2026-04-28 23:40 29.29457 -93.15078 35991 ft 395 kts 281°
2026-04-28 23:40 29.29978 -93.21341 35990 ft 396 kts 280°
2026-04-28 23:41 29.30470 -93.27624 35993 ft 396 kts 280°
2026-04-28 23:41 29.30948 -93.33876 35992 ft 397 kts 280°
2026-04-28 23:42 29.31424 -93.40176 35989 ft 397 kts 280°
2026-04-28 23:42 29.31897 -93.46483 35989 ft 397 kts 280°
2026-04-28 23:43 29.32368 -93.52793 35994 ft 397 kts 280°
2026-04-28 23:43 29.32833 -93.59059 35995 ft 397 kts 280°
2026-04-28 23:44 29.33299 -93.65373 35991 ft 397 kts 280°
2026-04-28 23:44 29.33761 -93.71685 35991 ft 397 kts 280°
2026-04-28 23:45 29.34224 -93.78022 35447 ft 404 kts 280°
2026-04-28 23:45 29.34455 -93.81209 34729 ft 401 kts 279°
2026-04-28 23:45 29.34682 -93.84355 33848 ft 402 kts 279°
2026-04-28 23:46 29.34913 -93.87560 32815 ft 405 kts 279°
2026-04-28 23:46 29.35131 -93.90786 31771 ft 408 kts 278°
2026-04-28 23:46 29.35317 -93.94054 30738 ft 412 kts 277°
2026-04-28 23:46 29.35492 -93.97350 29660 ft 416 kts 276°
2026-04-28 23:47 29.35665 -94.00675 28489 ft 420 kts 276°
2026-04-28 23:47 29.35842 -94.04044 27354 ft 428 kts 276°
2026-04-28 23:47 29.36026 -94.07476 26239 ft 433 kts 276°
2026-04-28 23:47 29.36207 -94.10871 25180 ft 431 kts 275°
2026-04-28 23:48 29.36390 -94.14284 24217 ft 427 kts 275°
2026-04-28 23:48 29.36570 -94.17660 23227 ft 422 kts 275°
2026-04-28 23:48 29.36749 -94.21004 22196 ft 417 kts 274°
2026-04-28 23:48 29.36924 -94.24296 21264 ft 411 kts 274°
2026-04-28 23:49 29.37120 -94.27531 20470 ft 404 kts 275°
2026-04-28 23:49 29.37325 -94.30643 20337 ft 381 kts 275°
2026-04-28 23:49 29.37519 -94.33594 20165 ft 362 kts 275°
2026-04-28 23:49 29.37697 -94.36365 20011 ft 345 kts 275°
2026-04-28 23:50 29.37903 -94.39076 19526 ft 341 kts 276°
2026-04-28 23:50 29.38182 -94.41771 19036 ft 340 kts 277°
2026-04-28 23:50 29.38481 -94.44469 18498 ft 341 kts 277°
2026-04-28 23:50 29.38779 -94.47163 17905 ft 339 kts 277°
2026-04-28 23:51 29.39067 -94.49831 17356 ft 335 kts 276°
2026-04-28 23:51 29.39347 -94.52466 16825 ft 331 kts 276°
2026-04-28 23:51 29.39620 -94.55075 16306 ft 328 kts 276°
2026-04-28 23:51 29.39890 -94.57668 15798 ft 329 kts 276°
2026-04-28 23:52 29.40160 -94.60285 15281 ft 331 kts 275°
2026-04-28 23:52 29.40428 -94.62883 14752 ft 333 kts 275°
2026-04-28 23:52 29.40704 -94.65516 14220 ft 332 kts 277°
2026-04-28 23:52 29.41334 -94.68062 13756 ft 333 kts 290°
2026-04-28 23:53 29.42242 -94.70493 13234 ft 330 kts 291°
2026-04-28 23:53 29.43162 -94.72892 12779 ft 327 kts 291°
2026-04-28 23:53 29.44064 -94.75264 12336 ft 323 kts 291°
2026-04-28 23:53 29.44949 -94.77620 11903 ft 320 kts 291°
2026-04-28 23:54 29.45816 -94.79954 11479 ft 317 kts 290°
2026-04-28 23:54 29.46659 -94.82237 11065 ft 312 kts 290°
2026-04-28 23:54 29.47497 -94.84513 10651 ft 307 kts 290°
2026-04-28 23:54 29.48323 -94.86759 10234 ft 303 kts 290°
2026-04-28 23:55 29.49129 -94.88964 9969 ft 294 kts 290°
2026-04-28 23:55 29.49891 -94.91063 9970 ft 276 kts 290°
2026-04-28 23:55 29.50614 -94.93058 9582 ft 273 kts 290°
2026-04-28 23:55 29.51336 -94.95062 9225 ft 270 kts 289°
2026-04-28 23:56 29.52047 -94.97032 8974 ft 264 kts 289°
2026-04-28 23:56 29.52743 -94.98962 8742 ft 261 kts 289°
2026-04-28 23:56 29.53438 -95.00888 8512 ft 262 kts 289°
2026-04-28 23:56 29.54125 -95.02796 8295 ft 262 kts 289°
2026-04-28 23:57 29.54823 -95.04735 8074 ft 263 kts 288°
2026-04-28 23:57 29.55521 -95.06673 7847 ft 261 kts 288°
2026-04-28 23:57 29.56209 -95.08578 7640 ft 255 kts 288°
2026-04-28 23:57 29.56880 -95.10439 7413 ft 250 kts 288°
2026-04-28 23:58 29.57537 -95.12264 7198 ft 245 kts 287°
2026-04-28 23:58 29.58174 -95.14053 7015 ft 238 kts 284°
2026-04-28 23:58 29.58583 -95.15842 6891 ft 226 kts 276°
2026-04-28 23:58 29.58869 -95.17559 6775 ft 218 kts 275°
2026-04-28 23:59 29.59143 -95.19236 6673 ft 209 kts 275°
2026-04-28 23:59 29.59411 -95.20847 6604 ft 203 kts 275°
2026-04-28 23:59 29.59682 -95.22443 6502 ft 204 kts 275°
2026-04-28 23:59 29.59955 -95.24019 6307 ft 199 kts 274°
2026-04-29 00:00 29.60241 -95.25585 5923 ft 203 kts 278°
2026-04-29 00:00 29.60727 -95.27134 5556 ft 207 kts 283°
2026-04-29 00:00 29.61249 -95.28673 5213 ft 206 kts 284°
2026-04-29 00:00 29.61765 -95.30185 4869 ft 206 kts 284°
2026-04-29 00:01 29.62298 -95.31717 4460 ft 209 kts 288°
2026-04-29 00:01 29.63092 -95.33144 4091 ft 211 kts 297°
2026-04-29 00:01 29.63933 -95.34518 3660 ft 209 kts 297°
2026-04-29 00:01 29.64766 -95.35881 3226 ft 208 kts 297°
2026-04-29 00:02 29.65585 -95.37230 2898 ft 201 kts 297°
2026-04-29 00:02 29.66369 -95.38531 2657 ft 196 kts 297°
2026-04-29 00:02 29.67130 -95.39808 2382 ft 191 kts 297°
2026-04-29 00:02 29.67912 -95.41028 2122 ft 192 kts 314°
2026-04-29 00:03 29.69094 -95.41597 2021 ft 186 kts 355°
2026-04-29 00:03 29.70363 -95.41414 2000 ft 183 kts 21°
2026-04-29 00:03 29.71476 -95.40817 1974 ft 171 kts 46°
2026-04-29 00:03 29.72140 -95.39773 2019 ft 162 kts 72°
2026-04-29 00:04 29.72407 -95.38563 2013 ft 152 kts 98°
2026-04-29 00:04 29.72341 -95.37365 2030 ft 146 kts 114°
2026-04-29 00:04 29.71768 -95.36559 1951 ft 125 kts 151°
2026-04-29 00:04 29.71159 -95.35838 1802 ft 126 kts 132°
2026-04-29 00:05 29.70579 -95.35075 1623 ft 125 kts 139°
2026-04-29 00:05 29.69982 -95.34377 1458 ft 125 kts 139°
2026-04-29 00:05 29.69368 -95.33650 1307 ft 127 kts 140°
2026-04-29 00:05 29.68763 -95.32929 1132 ft 124 kts 141°
2026-04-29 00:06 29.68166 -95.32219 970 ft 123 kts 141°
2026-04-29 00:06 29.67571 -95.31510 806 ft 123 kts 140°
2026-04-29 00:06 29.66953 -95.30772 667 ft 132 kts 142°
2026-04-29 00:06 29.66322 -95.30016 489 ft 132 kts 142°
2026-04-29 00:07 29.65683 -95.29258 316 ft 132 kts 141°
2026-04-29 00:07 29.65055 -95.28506 117 ft 127 kts 140°
2026-04-29 00:07 29.64499 -95.27849 51 ft 84 kts 132°
2026-04-29 00:07 29.64274 -95.27576 51 ft 24 kts 134°
2026-04-29 00:08 29.64203 -95.27493 51 ft 12 kts 133°
2026-04-29 00:08 29.64226 -95.27420 49 ft 11 kts 43°
2026-04-29 00:08 29.64280 -95.27361 51 ft 11 kts 45°
2026-04-29 00:08 29.64331 -95.27303 50 ft 10 kts 44°
2026-04-29 00:09 29.64383 -95.27253 51 ft 9 kts 14°
2026-04-29 00:09 29.64435 -95.27295 51 ft 9 kts 315°
2026-04-29 00:09 29.64479 -95.27347 51 ft 9 kts 314°
2026-04-29 00:09 29.64522 -95.27399 47 ft 9 kts 314°
2026-04-29 00:10 29.64565 -95.27449 51 ft 9 kts 315°
2026-04-29 00:10 29.64609 -95.27495 51 ft 8 kts 327°
2026-04-29 00:10 29.64664 -95.27511 51 ft 9 kts 353°
2026-04-29 00:10 29.64737 -95.27515 51 ft 13 kts 358°
2026-04-29 00:11 29.64838 -95.27519 51 ft 16 kts 358°
2026-04-29 00:11 29.64972 -95.27522 51 ft 21 kts 359°
2026-04-29 00:11 29.65141 -95.27628 51 ft 15 kts 268°